Regional Weather Roundup
Issued by NWS Wakefield, VA

Home | Current Version | Previous Version | Graphics & Text | Print | Product List | Glossary On
Versions: 1 2 3 4 5 6 7 8 9 10 11 12 13 14 15 16 17 18 19 20 21 22 23 24 25 26 27 28
000
ASUS41 KAKQ 170515
RWRAKQ

REGIONAL WEATHER ROUNDUP
NATIONAL WEATHER SERVICE WAKEFIELD VA
1200 AM EST TUE JAN 17 2017

Note: "fair" indicates few or no clouds below 12,000 feet with no
significant weather and/or obstructions to visibility. * = Denotes
station may not report precipitation (e.g., rain,snow,etc.),
thunder or fog.

VAZ042-051-052>054-056-170600-
NORTHERN VIRGINIA

CITY           SKY/WX    TMP DP  RH WIND       PRES   REMARKS
WASH NATIONAL  LGT RAIN  41  38  89 S6        30.31F
DULLES         CLOUDY    40  36  86 SE6       30.27F
FORT BELVOIR   LGT RAIN  40  38  93 CALM      30.29F
QUANTICO       CLOUDY    41  39  93 S6        30.31F
FREDERICKSBRG* CLOUDY    42  39  89 SE3       30.28F
STAFFORD*      CLOUDY    41  38  88 CALM      30.33F
WARRENTON      RAIN      43  39  86 CALM      30.28F
CULPEPER*      CLOUDY    43  42  95 CALM      30.29F
MANASSAS*      NOT AVBL
LEESBURG*      LGT RAIN  43  39  87 MISG      30.28F
WINCHESTER     CLOUDY    37  37 100 CALM      30.24F
FRONT ROYAL*   MOCLDY    39  37  93 CALM      30.24F
LURAY*         MOCLDY    45  43  93 S3        30.24F
$$

VAZ048-049-060>072-079>083-170600-
CENTRAL AND SOUTH CENTRAL VIRGINIA

CITY           SKY/WX    TMP DP  RH WIND       PRES   REMARKS
RICHMOND       CLOUDY    42  41  96 S5        30.31F
CHESTERFIELD*  CLOUDY    43  27  52 S3        30.32F
PETERSBURG*    CLOUDY    43  39  87 CALM      30.32F
HANOVER        CLOUDY    41  37  86 CALM      30.31F
TAPPAHANNOCK*  CLOUDY    43  31  62 S5        30.31F
QUINTON*       CLOUDY    42  39  91 MISG      30.31F
CHARLOTTSVILLE CLOUDY    43  41  93 S6        30.26F
GORDONSVILLE*  CLOUDY    41  41  99 SW6       30.27F
ORANGE*          N/A     41  41 100 CALM      30.29F
LOUISA*        PTCLDY    43  43 100 CALM      30.27F
BUMPASS*       FAIR      39  39 100 CALM      30.29F
FARMVILLE*     MOCLDY    37  37 100 CALM      30.29F FOG
CREWE*         FAIR      39  39 100 CALM      30.29F
FORT PICKETT*  FAIR      40  37  87 SW3       30.30F
CHASE CITY*    FAIR      40  39  95 CALM      30.29F
CLARKSVILLE*   FAIR      39  39 100 CALM      30.30F
SOUTH HILL*    CLOUDY    44  41  91 S3        30.36F
LAWRENCEVILLE* CLOUDY    43  41  91 CALM      30.31S
EMPORIA*       CLOUDY    43  39  87 CALM      30.34S
$$

VAZ088>098-170600-
SOUTHEAST VIRGINIA

CITY           SKY/WX    TMP DP  RH WIND       PRES   REMARKS
NORFOLK        CLOUDY    44  40  85 CALM      30.31F
VIRGINIA BEACH CLOUDY    42  38  85 CALM      30.31F
NORFOLK NAVAL  NOT AVBL
WEST POINT*    CLOUDY    42  37  79 CALM      30.33F
SALUDA*        CLOUDY    42  36  78 CALM      30.31F
NEWPORT NEWS   CLOUDY    44  38  79 CALM      30.32F
LANGLEY AFB    CLOUDY    44  39  84 CALM      30.31F
FORT EUSTIS    CLOUDY    44  37  79 CALM      30.29F
WILLIAMSBURG*  CLOUDY    45  37  76 CALM      30.32F
HR EXEC AP*    CLOUDY    43  37  81 CALM      30.31F
FRANKLIN*      CLOUDY    44  40  88 CALM      30.33F
US460-WAKEFLD  CLOUDY    43  39  86 CALM      30.32F
$$

VAZ020-022-025-037-045-170600-
WEST CENTRAL AND SOUTHWEST VIRGINIA

CITY           SKY/WX    TMP DP  RH WIND       PRES   REMARKS
STAUNTON*      CLOUDY    41  39  93 S3        30.26F
WAYNESBORO*    FAIR      40  38  96 CALM      30.24F
HOT SPRINGS VA CLOUDY    48  45  87 SW13      30.20F
LYNCHBURG      CLOUDY    38  37  97 CALM      30.28F
DANVILLE       CLOUDY    41  37  86 SW3       30.29F
SOUTH BOSTON*  FAIR      38  37  95 CALM      30.29F
MARTINSVILLE   CLOUDY    47  43  87 SW5       30.29F
ROANOKE        CLOUDY    42  41  96 CALM      30.27F FOG
BLACKSBURG     FOG       43  43 100 CALM      30.27F VSB 1/4
DUBLIN*        FOG       45  45 100 CALM      30.25F VSB 1/4
MARION*        FOG       47  46  95 E6        30.25F VSB 1/4
HILLSVILLE*    CLOUDY    44  44 100 CALM      30.23F FOG
RICHLANDS*     FAIR     N/A N/A N/A S7        30.19S
WISE*          CLOUDY    55  46  71 S10       30.19F
ABINGDON*      MOCLDY    52  49  90 CALM      30.20F
$$

MDZ021>025-VAZ099-100-170600-
SOUTHERN MARYLAND AND THE DELMARVA PENINSULA

CITY           SKY/WX    TMP DP  RH WIND       PRES   REMARKS
PATUXENT RIVER CLOUDY    42  33  70 S5        30.30F
BAY BRIDGE APT CLOUDY    41  28  60 S5        30.30F
LEONARDTOWN    CLOUDY    41  32  70 CALM      30.32F
DOVER          CLOUDY    39  35  88 S3        30.31F
GEORGETOWN     CLOUDY    42  33  70 S3        30.32F
EASTON         CLOUDY    42  32  66 SW5       30.35F
CAMBRIDGE      CLOUDY    41  32  70 CALM      30.31F
SALISBURY      CLOUDY    41  34  76 CALM      30.32F
OCEAN CITY     CLOUDY    42  36  79 CALM      30.33F
WALLOPS ISLAND CLOUDY    42  37  82 CALM      30.33F
ACCOMACK*      CLOUDY    43  38  84 CALM      30.32F
$$

NCZ012>017-030>032-170600-
NORTH CENTRAL AND EASTERN NORTH CAROLINA

CITY           SKY/WX    TMP DP  RH WIND       PRES   REMARKS
ROANOKE RAPIDS CLOUDY    45  43  93 CALM      30.31F
RALEIGH        CLOUDY    48  41  76 S5        30.31F
ELIZABETH CITY PTCLDY    38  37  97 NW3       30.32F
AHOSKIE*         N/A     44  40  85 CALM      30.32F
EDENTON*       CLOUDY    42  39  91 CALM      30.32F
CURRITUCK*     PTCLDY    40  40 100 CALM      30.32F
KILL DEVIL HLS NOT AVBL
MANTEO         PTCLDY    41  39  94 N5        30.31F
CAPE HATTERAS  MOCLDY    47  43  86 N5        30.30F
TARBORO*       NOT AVBL
GOLDSBORO      CLOUDY    51  45  82 CALM      30.30F
WASHINGTON     CLOUDY    45  40  83 CALM      30.32F
GREENVILLE     CLOUDY    48  45  87 CALM      30.32F
NEW BERN       MOCLDY    44  41  89 CALM      30.32F
WILMINGTON     CLOUDY    51  47  86 CALM      30.31F
$$

VAZ048-170600-
ELSEWHERE

CITY           SKY/WX    TMP DP  RH WIND       PRES   REMARKS
HARRISBURG PA  CLOUDY    36  29  75 CALM      30.28F
BALTIMORE      CLOUDY    40  31  70 CALM      30.29F
ANNAPOLIS      CLOUDY    40  35  83 SE3       30.30F
ANDREWS AFB    LGT RAIN  39  36  90 CALM      30.28F
PHILADELPHIA   CLOUDY    39  28  64 S3        30.33F
HENDERSON NC   CLOUDY    42  37  82 CALM      30.29F
GREENSBORO     CLOUDY    46  44  93 SW5       30.28F
ROCKY MOUNT    CLOUDY    47  44  90 CALM      30.32F
$$

VAZ100-170600-
MARINE

STATION/POSITION TIME  TEMP    WIND        PRES    WAVE   SWELL
                       AIR SEA DIR/SP/G            HT/PER HT/PER
                 (UTC) (F)     (DEG/KT/KT) (MB)    (FT/S) (FT/S)
CAPE MAY NJ      0448   40 40  180/  4/  5 1026.4F
LEWES DE         0442   41 41  200/  3/  5 1026.7F
OCEAN-CITY-INLET 0442   42 42  190/  1/  1 1027.4F
WACHAPREAGUE VA  0442   43 44   CALM  /  1 1026.8F
THOMAS POINT MD  0500   39 38  180/  9/  9   N/A
GOOSES REEF MD   0500   40     170/  4/  4 1027.0    0
COVE POINT MD    0442   41     190/  5/  6 1027.1F
SOLOMONS ISLAND  0442   42 41  150/  4/  5   N/A
BISHOPS HEAD MD  0448   40 41  140/  3/  3 1027.0F
PINEY POINT MD   0448          160/  3/  4   N/A
POTOMAC MD       0500   41 40  210/  2/  2 1025.7    0
CAMBRIDGE MD     0448   42 38  200/  2/  4 1026.0F
LEWISETTA VA     0442   42 42  200/  3/  3 1026.4F
RAPPAHANNOCK LGT 0448           CALM  /  1 1027.3F
STINGRAY PT      0450   40      CALM  /  2 1027.1F
YORK RVR RNG VA  0442   42     110/  2/  2 1026.2F
YORKTOWN VA      0442   42 42   80/  1/  1 1026.6F
JAMESTOWN VA     0450   42      CALM  /  2   N/A
DOMINION TERM VA 0442   43      CALM  /  1 1026.8F
KIPTOPEKE VA     0442      42  360/  2/  2   N/A
CHES BAY BRIDGE  0442   42 42   40/  2/  2 1026.6F
CAPE HENRY VA    0442   42     320/  2/  3   N/A
WILLOUBY STN VA  0442   42      80/  2/  3 1027.5F
S CRANEY ISL VA  0442   43      40/  1/  1 1026.4F
CAPE HENRY BUOY  0442      47                N/A     2/ 9
OFFSHORE WE BUOY 0451      49                N/A     2/11
64NM E OF VA BCH 0450   54 58  360/  6/  8 1026.1F   2/ 9   2/ 9
DUCK PIER NC     0442   44 44  350/  6/  7 1025.7F
44100 DUCK FRF   0435      46                N/A     2/ 9   2/11
44056 DUCK FRF   0430      44                N/A     2/ 8
OREGON INLET NC  0442   44 49  340/  3/  5 1026.2F
HATTERAS NC      0442   47 53  360/  7/  9 1025.6F
DIAMOND SHLS NC  0450   56 73   10/ 10/ 12 1025.9F   3/ 8   3/ 8
CAPE LOOKOUT NC  0400   49      10/  6/  7 1026.4F
$$




USA.gov is the U.S. government's official web portal to all federal, state and local government web resources and services.